Content
SEND FEEDBACK

Daily
Averages
Monthly
Summary
United States of America

SOLEDAD, CALIFORNIA


Home > North America > United States > California
Elevation: 200 feet     Latitude: 36 26N     Longitude: 121 19W

WEATHER
 
SELECT A DAY
Number of Records: 199,418;   Date Range: 1/1/95 - 7/29/14
 
SHARE

PRINT THIS DATA

[ ← Previous Day ]
WEATHER ALMANAC - MAY 25, 2013
[ Next Day → ]
[ °C ]   °F
Weather ElementAverageHighLow
Temperature55 °F60.1 °F (1:53 pm)50 °F (1:53 am)
Dewpoint45.1 °F48 °F (10:53 pm)42.8 °F (2:13 am)
Humidity69.5 %83 % (11:53 pm)57 % (1:53 pm)
Barometer30.10 in30.14 in (10:53 pm)30.04 in (2:13 am)
Wind Speed12.5 mph18.4 mph (6:53 pm)
Wind Gust21.9 mph (2:53 pm)
Weather ElementAverage
Visibility10 mi
Wind DirectionWSW (243.1 °)

Weather ElementTotal
Precipitation---
Heating Degree Days10 (Base 65)
Growing Degree Days5.1 (Base 50)
Averaged from 26 records on May 25, 2013
WEATHER CONDITIONS BREAKOUT
WIND DIRECTION BREAKOUT
WEATHER BY HOUR - MAY 25, 2013
[ °C ]   °F
Local TimeTemperatureDewpointHumidityBarometerVisibilityWind DirectionWind SpeedGust SpeedPrecipitationEventsConditions
1:53 AM50.0 °F43.0 °F77 %30.07 in10.0 miWSW (240°)10.4 mphPartly Cloudy
2:13 AM50.0 °F42.8 °F76 %30.04 in10.0 miSW (230°)10.4 mphMostly Cloudy
2:53 AM51.1 °F44.1 °F77 %30.07 in10.0 miSW (230°)9.2 mphOvercast
3:53 AM52.0 °F44.1 °F74 %30.06 in10.0 miWSW (240°)9.2 mphOvercast
4:53 AM52.0 °F44.1 °F74 %30.06 in10.0 miSW (230°)9.2 mphOvercast
5:53 AM52.0 °F44.1 °F74 %30.07 in10.0 miSW (230°)9.2 mphOvercast
6:53 AM52.0 °F44.1 °F74 %30.08 in9.0 miSW (220°)9.2 mphOvercast
7:53 AM53.1 °F44.1 °F71 %30.09 in10.0 miWSW (240°)11.5 mphOvercast
8:53 AM53.1 °F43.0 °F69 %30.09 in10.0 miWest (260°)12.7 mphOvercast
9:53 AM55.0 °F44.1 °F67 %30.10 in10.0 miWest (260°)12.7 mph18.4 mphOvercast
10:53 AM55.9 °F44.1 °F64 %30.11 in10.0 miWest (260°)13.8 mphOvercast
11:53 AM57.0 °F45.0 °F64 %30.11 in10.0 miWSW (240°)9.2 mphOvercast
12:32 PM59.0 °F44.6 °F59 %30.08 in10.0 miWest (260°)12.7 mphPartly Cloudy
12:53 PM59.0 °F45.0 °F60 %30.11 in10.0 miWest (260°)16.1 mph19.6 mphScattered Clouds
1:53 PM60.1 °F45.0 °F57 %30.11 in10.0 miWest (270°)16.1 mph20.7 mphPartly Cloudy
2:53 PM60.1 °F45.0 °F57 %30.11 in10.0 miWest (260°)16.1 mph21.9 mphPartly Cloudy
3:53 PM60.1 °F45.0 °F57 %30.11 in10.0 miWSW (250°)15.0 mphPartly Cloudy
4:53 PM59.0 °F45.0 °F60 %30.11 in10.0 miWSW (240°)15.0 mph20.7 mphPartly Cloudy
5:53 PM57.9 °F46.0 °F65 %30.10 in10.0 miWest (260°)15.0 mphPartly Cloudy
6:53 PM55.9 °F46.0 °F69 %30.10 in10.0 miWSW (240°)18.4 mphPartly Cloudy
7:37 PM55.4 °F46.4 °F72 %30.08 in10.0 miWSW (240°)13.8 mphMostly Cloudy
7:53 PM55.0 °F46.9 °F74 %30.11 in10.0 miSW (230°)12.7 mphOvercast
8:53 PM54.0 °F46.9 °F77 %30.11 in10.0 miSW (230°)12.7 mphOvercast
9:53 PM54.0 °F46.9 °F77 %30.12 in10.0 miSW (230°)11.5 mphOvercast
10:53 PM54.0 °F48.0 °F80 %30.14 in10.0 miWSW (240°)12.7 mphOvercast
11:53 PM53.1 °F48.0 °F83 %30.13 in10.0 miSW (230°)10.4 mphOvercast
Hourly data recorded from KSNS, located miles away from Soledad, California







STORIES FROM OUR PARTNERS